{"data":{"norad_id":58590,"epoch":"2026-05-24T22:33:50.713056Z","epoch_age_seconds":80511,"freshness":"FRESH","line1":"1 58590U 23200B   26144.94017029 -.00001565  00000+0 -47382-4 0  9999","line2":"2 58590  43.0031 101.5246 0001348 226.6438 133.4301 15.27564929135235","mean_motion":15.27564929,"eccentricity":0.0001348,"inclination_deg":43.0031,"raan_deg":101.5246,"arg_perigee_deg":226.6438,"mean_anomaly_deg":133.4301,"bstar":-4.7382e-5,"rev_number":13523,"period_min":94.267678752135,"perigee_km":482.1693304374,"apogee_km":484.0191183755,"semimajor_km":6861.2312244064,"source":"CELESTRAK","updated_at":"2026-05-25T13:38:18.665207Z"}}